ソニア彗星

C/2014 A4 ( SONEAR )

English version
Home page
Updated on October 8, 2017

---------------------------------------------------------------------

・ プロフィール

発見日 2014年1月12日
発見光度 18.1等
発見者 Southern Observatory for Near Earth Research (Oliveira, Brazil)

・ 写真集

・ 軌道要素

Epoch 2015 Sept. 15.0 TT = JDT 2457280.5
T 2015 Sept. 5.86431 TT                                 MPCW
q   4.1801826            (2000.0)            P               Q
z  -0.0001957      Peri.  356.78842     +0.85257575     +0.30629479
 +/-0.0000003      Node    29.72718     +0.49649582     -0.72761926
e   1.0008179      Incl.  121.35889     +0.16311498     +0.61380267
From 2569 observations 2014 Jan. 12-2017 Apr. 15, mean residual 0".5.

・ 星図

・ 光度変化

        m1 = 6.0 + 5 logΔ + 10.0 log r(t + 50)

---------------------------------------------------------------------

軌道要素はM.P.E.C. 2017-J52に掲載されたものです。
光度グラフはComet for Windowsで作成したものです。

---------------------------------------------------------------------

Copyright(C) Seiichi Yoshida (comet@aerith.net). All rights reserved.